User: anonymous   Login
Location: Caltech
(34.1382°N, 118.1253°W)
Time: 18:44:49
(UTC-08:00)
Language:

Cosmos 1733 Rocket - Orbit

View from above orbital plane
View from above orbital plane
View from above satellite
View from above satellite

Ground track
Ground track

The orbit data is extracted from the following two-line orbital elements,

1 16612U 86018B   17015.73867521 +.00000080 +00000-0 +67794-5 0  9998
2 16612 082.5164 079.4675 0016298 298.6915 200.9563 14.84127079547743
Epoch (UTC): 15 January 2017 17:43:41
Eccentricity: 0.0016298
inclination: 82.5164°
perigee height: 605 km
apogee height: 628 km
right ascension of ascending node: 79.4675°
argument of perigee: 298.6915°
revolutions per day: 14.84127079
mean anomaly at epoch: 200.9563°
orbit number at epoch: 54774

The dashed part of the orbit path shows where the satellite is in the earth's shadow,  

DLR